DAL2648 KDTW-KBOS

Flight info

Callsign DAL2648
Flight time 1h 31m
Altitude 35000
Route HHOWE4 LNCON JHW Q82 PONCT JFUND2
Aircraft A321/M-SDE3FGHIRWY/LB1

Departure

Time 2026-05-04 00:17
Airport Detroit Metropolitan Wayne County Airport (KDTW)

Arrival

Time 2026-05-04 01:48
Airport Boston Logan International Airport (KBOS)
Time Latitude Longitude Altitude Speed Heading
2026-05-03 23:28 42.21324 -83.35519 647 ft 0 kts 119°
2026-05-04 00:06 42.21331 -83.35537 646 ft 4 kts 120°
2026-05-04 00:06 42.21343 -83.35568 646 ft 4 kts 105°
2026-05-04 00:07 42.21345 -83.35603 646 ft 4 kts 72°
2026-05-04 00:07 42.21333 -83.35629 647 ft 2 kts 29°
2026-05-04 00:07 42.21332 -83.35630 646 ft 0 kts 28°
2026-05-04 00:09 42.21333 -83.35629 646 ft 1 kts 28°
2026-05-04 00:09 42.21347 -83.35618 646 ft 4 kts 28°
2026-05-04 00:10 42.21381 -83.35593 647 ft 7 kts 29°
2026-05-04 00:10 42.21433 -83.35554 646 ft 10 kts 29°
2026-05-04 00:10 42.21498 -83.35506 646 ft 12 kts 29°
2026-05-04 00:10 42.21551 -83.35422 646 ft 13 kts 85°
2026-05-04 00:11 42.21553 -83.35291 646 ft 14 kts 89°
2026-05-04 00:11 42.21552 -83.35154 646 ft 15 kts 90°
2026-05-04 00:11 42.21598 -83.35032 648 ft 16 kts 45°
2026-05-04 00:11 42.21681 -83.34922 648 ft 17 kts 44°
2026-05-04 00:12 42.21767 -83.34813 647 ft 18 kts 43°
2026-05-04 00:12 42.21833 -83.34708 646 ft 14 kts 82°
2026-05-04 00:12 42.21839 -83.34571 647 ft 15 kts 86°
2026-05-04 00:12 42.21903 -83.34466 646 ft 16 kts 29°
2026-05-04 00:13 42.22005 -83.34391 648 ft 17 kts 29°
2026-05-04 00:13 42.22106 -83.34316 646 ft 16 kts 28°
2026-05-04 00:13 42.22204 -83.34244 646 ft 16 kts 29°
2026-05-04 00:13 42.22304 -83.34171 646 ft 16 kts 28°
2026-05-04 00:14 42.22400 -83.34100 646 ft 16 kts 28°
2026-05-04 00:14 42.22492 -83.34032 646 ft 15 kts 29°
2026-05-04 00:14 42.22580 -83.33966 648 ft 15 kts 29°
2026-05-04 00:14 42.22684 -83.33890 647 ft 18 kts 28°
2026-05-04 00:15 42.22802 -83.33805 646 ft 14 kts 29°
2026-05-04 00:15 42.22858 -83.33755 645 ft 8 kts 53°
2026-05-04 00:15 42.22838 -83.33666 646 ft 12 kts 117°
2026-05-04 00:15 42.22806 -83.33629 645 ft 8 kts 175°
2026-05-04 00:16 42.22772 -83.33655 645 ft 0 kts 212°
2026-05-04 00:16 42.22762 -83.33663 646 ft 8 kts 212°
2026-05-04 00:16 42.22507 -83.33855 647 ft 75 kts 208°
2026-05-04 00:17 42.21879 -83.34319 647 ft 128 kts 208°
2026-05-04 00:17 42.21021 -83.34950 989 ft 139 kts 208°
2026-05-04 00:17 42.20173 -83.35538 1682 ft 139 kts 206°
2026-05-04 00:17 42.19285 -83.36074 2285 ft 144 kts 198°
2026-05-04 00:18 42.18214 -83.35978 2648 ft 169 kts 172°
2026-05-04 00:18 42.17016 -83.35561 2805 ft 187 kts 175°
2026-05-04 00:18 42.15663 -83.35177 2938 ft 209 kts 175°
2026-05-04 00:18 42.14160 -83.34761 3243 ft 226 kts 175°
2026-05-04 00:19 42.12608 -83.34318 3925 ft 230 kts 175°
2026-05-04 00:19 42.11053 -83.33753 4573 ft 243 kts 160°
2026-05-04 00:19 42.09677 -83.32416 5222 ft 244 kts 150°
2026-05-04 00:19 42.08212 -83.31287 5806 ft 241 kts 168°
2026-05-04 00:20 42.06629 -83.31186 6427 ft 225 kts 200°
2026-05-04 00:20 42.05077 -83.31630 7024 ft 235 kts 185°
2026-05-04 00:20 42.03491 -83.30935 7636 ft 253 kts 146°
2026-05-04 00:20 42.02455 -83.29006 8261 ft 263 kts 107°
2026-05-04 00:21 42.02403 -83.26588 8863 ft 261 kts 74°
2026-05-04 00:21 42.03109 -83.24327 9340 ft 264 kts 49°
2026-05-04 00:21 42.03499 -83.23678 9484 ft 264 kts 39°
2026-05-04 00:22 42.09245 -83.17079 11054 ft 307 kts 37°
2026-05-04 00:22 42.10766 -83.14957 11437 ft 324 kts 47°
2026-05-04 00:22 42.12062 -83.12340 11573 ft 349 kts 60°
2026-05-04 00:23 42.13022 -83.09233 11820 ft 367 kts 69°
2026-05-04 00:23 42.13886 -83.05960 12351 ft 373 kts 68°
2026-05-04 00:23 42.14770 -83.02657 12993 ft 376 kts 68°
2026-05-04 00:23 42.15668 -82.99325 13620 ft 379 kts 68°
2026-05-04 00:24 42.16572 -82.95971 14206 ft 382 kts 68°
2026-05-04 00:24 42.17486 -82.92590 14774 ft 386 kts 68°
2026-05-04 00:24 42.18407 -82.89179 15360 ft 388 kts 68°
2026-05-04 00:24 42.19334 -82.85744 15914 ft 391 kts 67°
2026-05-04 00:25 42.20267 -82.82279 16459 ft 395 kts 67°
2026-05-04 00:25 42.21204 -82.78781 16998 ft 398 kts 67°
2026-05-04 00:25 42.22146 -82.75249 17529 ft 402 kts 67°
2026-05-04 00:25 42.23095 -82.71691 18063 ft 405 kts 67°
2026-05-04 00:26 42.24051 -82.68099 18542 ft 408 kts 68°
2026-05-04 00:26 42.24813 -82.64385 19002 ft 414 kts 77°
2026-05-04 00:26 42.25116 -82.60501 19457 ft 419 kts 85°
2026-05-04 00:26 42.25264 -82.56561 19906 ft 421 kts 85°
2026-05-04 00:27 42.25417 -82.52594 20360 ft 424 kts 85°
2026-05-04 00:27 42.25570 -82.48653 20800 ft 427 kts 85°
2026-05-04 00:27 42.25691 -82.44629 21249 ft 430 kts 86°
2026-05-04 00:27 42.25711 -82.40565 21689 ft 434 kts 88°
2026-05-04 00:28 42.25658 -82.36479 22129 ft 437 kts 89°
2026-05-04 00:28 42.25571 -82.32357 22549 ft 440 kts 90°
2026-05-04 00:28 42.25479 -82.28215 22965 ft 443 kts 89°
2026-05-04 00:28 42.25401 -82.24048 23375 ft 446 kts 89°
2026-05-04 00:29 42.25339 -82.19849 23734 ft 449 kts 89°
2026-05-04 00:29 42.25288 -82.15635 24092 ft 451 kts 88°
2026-05-04 00:29 42.25243 -82.11391 24447 ft 453 kts 88°
2026-05-04 00:29 42.25199 -82.07134 24802 ft 455 kts 88°
2026-05-04 00:30 42.25150 -82.02857 25149 ft 457 kts 89°
2026-05-04 00:30 42.25098 -81.98544 25492 ft 459 kts 89°
2026-05-04 00:30 42.25043 -81.94219 25839 ft 461 kts 89°
2026-05-04 00:30 42.24985 -81.89879 26181 ft 463 kts 89°
2026-05-04 00:31 42.24924 -81.85521 26524 ft 465 kts 89°
2026-05-04 00:31 42.24860 -81.81146 26851 ft 468 kts 89°
2026-05-04 00:31 42.24792 -81.76758 27175 ft 469 kts 89°
2026-05-04 00:31 42.24726 -81.72392 27492 ft 471 kts 89°
2026-05-04 00:32 42.24657 -81.67956 27805 ft 474 kts 89°
2026-05-04 00:32 42.24586 -81.63499 28124 ft 476 kts 89°
2026-05-04 00:32 42.24511 -81.59018 28419 ft 478 kts 89°
2026-05-04 00:32 42.24432 -81.54522 28707 ft 480 kts 89°
2026-05-04 00:33 42.24351 -81.50010 28981 ft 482 kts 89°
2026-05-04 00:33 42.24213 -81.40935 29547 ft 486 kts 89°
2026-05-04 00:33 42.24158 -81.36369 29822 ft 488 kts 89°
2026-05-04 00:34 42.24104 -81.31783 30085 ft 489 kts 89°
2026-05-04 00:34 42.24046 -81.27187 30332 ft 491 kts 89°
2026-05-04 00:34 42.23984 -81.22579 30665 ft 490 kts 89°
2026-05-04 00:34 42.23918 -81.17977 30998 ft 490 kts 89°
2026-05-04 00:35 42.23843 -81.13381 31324 ft 489 kts 89°
2026-05-04 00:35 42.23761 -81.08790 31626 ft 489 kts 89°
2026-05-04 00:35 42.23677 -81.04203 31948 ft 489 kts 89°
2026-05-04 00:35 42.23597 -80.99617 32265 ft 489 kts 89°
2026-05-04 00:36 42.23544 -80.96576 32479 ft 489 kts 89°
2026-05-04 00:36 42.23465 -80.91999 32810 ft 488 kts 89°
2026-05-04 00:36 42.23384 -80.87419 33144 ft 487 kts 89°
2026-05-04 00:36 42.23301 -80.82839 33455 ft 487 kts 89°
2026-05-04 00:37 42.23217 -80.78272 33762 ft 487 kts 89°
2026-05-04 00:37 42.23130 -80.73702 34040 ft 487 kts 89°
2026-05-04 00:37 42.23040 -80.69126 34262 ft 487 kts 89°
2026-05-04 00:37 42.22952 -80.64553 34466 ft 488 kts 89°
2026-05-04 00:38 42.22863 -80.60035 34695 ft 488 kts 89°
2026-05-04 00:38 42.22768 -80.55451 34868 ft 489 kts 89°
2026-05-04 00:38 42.22666 -80.50848 34924 ft 492 kts 90°
2026-05-04 00:39 42.22460 -80.41509 34928 ft 498 kts 90°
2026-05-04 00:39 42.22255 -80.32133 34927 ft 501 kts 90°
2026-05-04 00:40 42.22079 -80.24314 34935 ft 502 kts 90°
2026-05-04 00:40 42.21807 -80.13315 34940 ft 502 kts 90°
2026-05-04 00:41 42.21565 -80.03907 34938 ft 502 kts 90°
2026-05-04 00:41 42.21322 -79.94478 34944 ft 502 kts 90°
2026-05-04 00:42 42.21085 -79.85122 34952 ft 502 kts 90°
2026-05-04 00:42 42.20830 -79.75698 34957 ft 503 kts 90°
2026-05-04 00:43 42.20553 -79.66255 34962 ft 503 kts 91°
2026-05-04 00:43 42.20268 -79.56841 34964 ft 502 kts 91°
2026-05-04 00:44 42.19987 -79.47409 34956 ft 503 kts 90°
2026-05-04 00:44 42.19704 -79.37988 34967 ft 503 kts 91°
2026-05-04 00:45 42.19411 -79.28555 34964 ft 503 kts 91°
2026-05-04 00:45 42.19107 -79.19182 34953 ft 503 kts 91°
2026-05-04 00:46 42.19173 -79.09780 34951 ft 500 kts 79°
2026-05-04 00:46 42.20353 -79.00564 34947 ft 499 kts 77°
2026-05-04 00:47 42.21543 -78.91348 34953 ft 499 kts 78°
2026-05-04 00:47 42.22715 -78.82097 34956 ft 499 kts 78°
2026-05-04 00:48 42.23875 -78.72861 34944 ft 499 kts 78°
2026-05-04 00:48 42.25028 -78.63634 34960 ft 499 kts 78°
2026-05-04 00:49 42.26179 -78.54387 34947 ft 500 kts 78°
2026-05-04 00:49 42.27319 -78.45173 34960 ft 500 kts 78°
2026-05-04 00:50 42.28462 -78.35910 34953 ft 501 kts 78°
2026-05-04 00:50 42.29599 -78.26632 34950 ft 500 kts 78°
2026-05-04 00:51 42.30725 -78.17347 34959 ft 500 kts 78°
2026-05-04 00:51 42.31835 -78.08061 34959 ft 501 kts 78°
2026-05-04 00:52 42.32937 -77.98745 34971 ft 501 kts 78°
2026-05-04 00:52 42.34045 -77.89442 34973 ft 502 kts 78°
2026-05-04 00:53 42.35147 -77.80120 34958 ft 502 kts 78°
2026-05-04 00:53 42.36238 -77.70791 34972 ft 502 kts 79°
2026-05-04 00:54 42.37308 -77.61529 34971 ft 502 kts 79°
2026-05-04 00:54 42.38384 -77.52195 34960 ft 502 kts 79°
2026-05-04 00:55 42.39447 -77.42853 34951 ft 502 kts 79°
2026-05-04 00:55 42.40501 -77.33521 34942 ft 502 kts 79°
2026-05-04 00:56 42.41554 -77.24172 34936 ft 502 kts 79°
2026-05-04 00:56 42.42603 -77.14818 34920 ft 504 kts 79°
2026-05-04 00:57 42.43635 -77.05428 34909 ft 504 kts 79°
2026-05-04 00:57 42.44667 -76.96037 34911 ft 504 kts 80°
2026-05-04 00:58 42.45689 -76.86638 34922 ft 504 kts 80°
2026-05-04 00:58 42.46705 -76.77231 34937 ft 504 kts 80°
2026-05-04 00:59 42.47716 -76.67825 34940 ft 504 kts 80°
2026-05-04 00:59 42.48725 -76.58427 34936 ft 503 kts 80°
2026-05-04 01:00 42.49718 -76.49097 34934 ft 503 kts 80°
2026-05-04 01:00 42.50712 -76.39645 34929 ft 504 kts 80°
2026-05-04 01:01 42.51681 -76.30307 34932 ft 504 kts 81°
2026-05-04 01:01 42.52646 -76.20887 34938 ft 504 kts 81°
2026-05-04 01:02 42.53075 -76.16710 34937 ft 504 kts 81°
2026-05-04 01:02 42.53334 -76.14186 34942 ft 504 kts 81°
2026-05-04 01:03 42.53977 -76.07929 34938 ft 504 kts 81°
2026-05-04 01:03 42.54931 -75.98497 34931 ft 505 kts 81°
2026-05-04 01:04 42.55868 -75.89052 34955 ft 505 kts 81°
2026-05-04 01:04 42.56602 -75.81603 34958 ft 504 kts 81°
2026-05-04 01:06 42.57089 -75.77061 34954 ft 504 kts 81°
2026-05-04 01:06 42.58024 -75.67637 34950 ft 504 kts 82°
2026-05-04 01:07 42.58908 -75.58210 34945 ft 504 kts 82°
2026-05-04 01:07 42.59514 -75.51803 34945 ft 504 kts 81°
2026-05-04 01:09 42.60330 -75.43430 34943 ft 504 kts 81°
2026-05-04 01:09 42.61242 -75.33986 34943 ft 504 kts 82°
2026-05-04 01:10 42.62127 -75.24533 34946 ft 504 kts 82°
2026-05-04 01:10 42.63013 -75.15074 34956 ft 505 kts 82°
2026-05-04 01:11 42.63887 -75.05604 34952 ft 505 kts 82°
2026-05-04 01:11 42.64755 -74.96134 34963 ft 504 kts 82°
2026-05-04 01:12 42.65624 -74.86675 34962 ft 504 kts 82°
2026-05-04 01:12 42.66481 -74.77282 34948 ft 504 kts 82°
2026-05-04 01:13 42.67324 -74.67830 34950 ft 504 kts 82°
2026-05-04 01:13 42.68160 -74.58374 34948 ft 503 kts 82°
2026-05-04 01:14 42.68985 -74.48909 34938 ft 504 kts 82°
2026-05-04 01:14 42.69810 -74.39454 34943 ft 504 kts 82°
2026-05-04 01:15 42.70632 -74.29987 34940 ft 504 kts 82°
2026-05-04 01:15 42.71444 -74.20504 34926 ft 504 kts 82°
2026-05-04 01:16 42.72245 -74.11085 34930 ft 504 kts 82°
2026-05-04 01:16 42.73021 -74.01611 34930 ft 503 kts 83°
2026-05-04 01:17 42.73798 -73.92151 34928 ft 503 kts 83°
2026-05-04 01:17 42.74569 -73.82695 34920 ft 503 kts 84°
2026-05-04 01:18 42.74650 -73.74788 34918 ft 504 kts 90°
2026-05-04 01:18 42.74583 -73.65249 34917 ft 504 kts 90°
2026-05-04 01:19 42.74503 -73.54167 34918 ft 504 kts 90°
2026-05-04 01:19 42.74437 -73.46188 34839 ft 500 kts 90°
2026-05-04 01:19 42.74393 -73.41504 34599 ft 491 kts 90°
2026-05-04 01:20 42.74346 -73.36874 34254 ft 486 kts 90°
2026-05-04 01:20 42.74297 -73.32271 33509 ft 489 kts 90°
2026-05-04 01:20 42.74244 -73.27707 32931 ft 487 kts 90°
2026-05-04 01:20 42.74191 -73.23107 32307 ft 485 kts 90°
2026-05-04 01:21 42.74140 -73.18520 31689 ft 484 kts 90°
2026-05-04 01:21 42.74090 -73.13948 31050 ft 483 kts 90°
2026-05-04 01:21 42.73837 -73.09384 30433 ft 482 kts 98°
2026-05-04 01:21 42.73322 -73.04887 29831 ft 481 kts 98°
2026-05-04 01:22 42.72806 -73.00412 29203 ft 477 kts 98°
2026-05-04 01:22 42.72289 -72.95964 28630 ft 472 kts 98°
2026-05-04 01:22 42.71778 -72.91578 28067 ft 468 kts 98°
2026-05-04 01:22 42.71268 -72.87224 27517 ft 464 kts 98°
2026-05-04 01:23 42.70767 -72.82956 26973 ft 460 kts 98°
2026-05-04 01:23 42.70262 -72.78674 26433 ft 456 kts 98°
2026-05-04 01:23 42.69763 -72.74435 25901 ft 452 kts 98°
2026-05-04 01:23 42.69267 -72.70219 25369 ft 449 kts 98°
2026-05-04 01:24 42.68768 -72.66031 24842 ft 446 kts 97°
2026-05-04 01:24 42.68271 -72.61895 24327 ft 443 kts 97°
2026-05-04 01:24 42.67776 -72.57778 23820 ft 440 kts 97°
2026-05-04 01:24 42.67284 -72.53692 23308 ft 436 kts 97°
2026-05-04 01:25 42.66796 -72.49654 22805 ft 430 kts 97°
2026-05-04 01:25 42.66315 -72.45675 22370 ft 424 kts 97°
2026-05-04 01:25 42.65834 -72.41749 21928 ft 418 kts 97°
2026-05-04 01:25 42.65353 -72.37879 21518 ft 412 kts 97°
2026-05-04 01:26 42.64879 -72.34067 21135 ft 406 kts 97°
2026-05-04 01:26 42.64413 -72.30305 20698 ft 403 kts 96°
2026-05-04 01:26 42.63963 -72.26529 20124 ft 407 kts 96°
2026-05-04 01:26 42.63528 -72.22727 19580 ft 406 kts 96°
2026-05-04 01:27 42.63106 -72.18989 19040 ft 406 kts 96°
2026-05-04 01:27 42.62671 -72.15156 18512 ft 404 kts 96°
2026-05-04 01:27 42.62237 -72.11398 17953 ft 404 kts 96°
2026-05-04 01:27 42.61798 -72.07653 17537 ft 399 kts 96°
2026-05-04 01:28 42.61367 -72.03981 16981 ft 398 kts 96°
2026-05-04 01:28 42.60918 -72.00249 16523 ft 394 kts 96°
2026-05-04 01:28 42.60466 -71.96632 16061 ft 392 kts 96°
2026-05-04 01:28 42.60004 -71.93003 15601 ft 389 kts 97°
2026-05-04 01:29 42.59550 -71.89395 15169 ft 386 kts 97°
2026-05-04 01:29 42.59104 -71.85812 14724 ft 383 kts 97°
2026-05-04 01:29 42.58661 -71.82256 14290 ft 381 kts 97°
2026-05-04 01:29 42.58182 -71.78735 13862 ft 379 kts 98°
2026-05-04 01:30 42.57649 -71.75244 13403 ft 376 kts 99°
2026-05-04 01:30 42.57085 -71.71773 12972 ft 374 kts 100°
2026-05-04 01:30 42.56514 -71.68341 12550 ft 372 kts 100°
2026-05-04 01:30 42.55950 -71.64935 12171 ft 367 kts 100°
2026-05-04 01:31 42.55402 -71.61592 11896 ft 360 kts 100°
2026-05-04 01:31 42.54859 -71.58304 11629 ft 356 kts 101°
2026-05-04 01:31 42.54248 -71.55037 11380 ft 355 kts 103°
2026-05-04 01:31 42.53590 -71.51827 11165 ft 353 kts 104°
2026-05-04 01:32 42.52904 -71.48635 10850 ft 352 kts 104°
2026-05-04 01:32 42.52219 -71.45510 10508 ft 350 kts 104°
2026-05-04 01:32 42.51522 -71.42317 10203 ft 346 kts 104°
2026-05-04 01:32 42.50865 -71.39243 10067 ft 334 kts 104°
2026-05-04 01:33 42.50245 -71.36293 9844 ft 327 kts 103°
2026-05-04 01:33 42.49647 -71.33347 9616 ft 323 kts 103°
2026-05-04 01:33 42.49069 -71.30416 9332 ft 321 kts 103°
2026-05-04 01:33 42.48495 -71.27502 9041 ft 319 kts 103°
2026-05-04 01:34 42.48108 -71.25543 8842 ft 318 kts 103°
2026-05-04 01:34 42.47347 -71.21718 8466 ft 315 kts 103°
2026-05-04 01:34 42.46773 -71.18861 8179 ft 314 kts 103°
2026-05-04 01:34 42.46206 -71.16014 7894 ft 312 kts 101°
2026-05-04 01:35 42.45897 -71.13133 7612 ft 308 kts 94°
2026-05-04 01:35 42.45648 -71.10256 7325 ft 306 kts 94°
2026-05-04 01:35 42.45393 -71.07434 7132 ft 297 kts 95°
2026-05-04 01:35 42.45138 -71.04707 6994 ft 287 kts 95°
2026-05-04 01:36 42.44889 -71.02089 6894 ft 273 kts 95°
2026-05-04 01:36 42.44592 -70.99572 6575 ft 269 kts 97°
2026-05-04 01:36 42.44288 -70.97078 6424 ft 267 kts 92°
2026-05-04 01:36 42.44344 -70.94587 6298 ft 263 kts 76°
2026-05-04 01:37 42.44708 -70.92174 6167 ft 259 kts 73°
2026-05-04 01:37 42.45068 -70.89820 6039 ft 252 kts 73°
2026-05-04 01:37 42.45424 -70.87510 5989 ft 250 kts 72°
2026-05-04 01:37 42.45786 -70.85200 5996 ft 251 kts 72°
2026-05-04 01:38 42.46143 -70.82886 5991 ft 251 kts 73°
2026-05-04 01:38 42.46492 -70.80567 5991 ft 251 kts 73°
2026-05-04 01:38 42.46835 -70.78243 5992 ft 252 kts 73°
2026-05-04 01:38 42.47176 -70.75907 5989 ft 252 kts 73°
2026-05-04 01:39 42.47515 -70.73575 5950 ft 253 kts 73°
2026-05-04 01:39 42.47852 -70.71259 5558 ft 254 kts 74°
2026-05-04 01:39 42.48190 -70.68911 5124 ft 255 kts 73°
2026-05-04 01:39 42.48530 -70.66545 4667 ft 257 kts 75°
2026-05-04 01:40 42.48874 -70.64156 4183 ft 257 kts 74°
2026-05-04 01:40 42.49064 -70.61771 3958 ft 252 kts 92°
2026-05-04 01:40 42.48605 -70.59562 3968 ft 240 kts 118°
2026-05-04 01:40 42.47561 -70.57842 4005 ft 235 kts 144°
2026-05-04 01:41 42.46113 -70.56959 3980 ft 225 kts 178°
2026-05-04 01:41 42.44611 -70.57174 3985 ft 212 kts 209°
2026-05-04 01:41 42.43449 -70.58264 3978 ft 198 kts 236°
2026-05-04 01:41 42.42825 -70.59852 3977 ft 188 kts 260°
2026-05-04 01:42 42.42523 -70.61581 3979 ft 189 kts 262°
2026-05-04 01:42 42.42225 -70.63312 3982 ft 189 kts 262°
2026-05-04 01:42 42.41926 -70.65041 3984 ft 188 kts 262°
2026-05-04 01:42 42.41627 -70.66766 3983 ft 189 kts 262°
2026-05-04 01:43 42.41327 -70.68498 3982 ft 189 kts 262°
2026-05-04 01:43 42.41026 -70.70230 3989 ft 189 kts 262°
2026-05-04 01:43 42.40729 -70.71931 3976 ft 185 kts 262°
2026-05-04 01:43 42.40439 -70.73592 3826 ft 179 kts 262°
2026-05-04 01:44 42.40154 -70.75228 3617 ft 179 kts 262°
2026-05-04 01:44 42.39868 -70.76866 3384 ft 178 kts 262°
2026-05-04 01:44 42.39584 -70.78498 3148 ft 178 kts 262°
2026-05-04 01:44 42.39298 -70.80131 2886 ft 178 kts 262°
2026-05-04 01:45 42.39012 -70.81768 2639 ft 179 kts 261°
2026-05-04 01:45 42.38725 -70.83404 2398 ft 177 kts 261°
2026-05-04 01:45 42.38208 -70.86339 1958 ft 150 kts 261°
2026-05-04 01:46 42.37971 -70.87694 1757 ft 147 kts 261°
2026-05-04 01:46 42.37735 -70.89040 1534 ft 148 kts 259°
2026-05-04 01:46 42.37497 -70.90395 1342 ft 148 kts 259°
2026-05-04 01:46 42.37258 -70.91755 1136 ft 149 kts 258°
2026-05-04 01:47 42.37018 -70.93120 925 ft 150 kts 259°
2026-05-04 01:47 42.36790 -70.94482 730 ft 151 kts 259°
2026-05-04 01:47 42.36552 -70.95867 496 ft 151 kts 257°
2026-05-04 01:47 42.36297 -70.97240 264 ft 150 kts 257°
2026-05-04 01:48 42.36054 -70.98614 83 ft 150 kts 257°
2026-05-04 01:48 42.35824 -70.99941 28 ft 133 kts 258°
2026-05-04 01:48 42.35673 -71.00760 29 ft 49 kts 255°
2026-05-04 01:48 42.35624 -71.01037 25 ft 24 kts 272°
2026-05-04 01:49 42.35691 -71.01208 30 ft 12 kts 306°
2026-05-04 01:49 42.35735 -71.01296 28 ft 7 kts 298°
2026-05-04 01:49 42.35745 -71.01324 30 ft 7 kts 292°
2026-05-04 01:49 42.35776 -71.01443 29 ft 19 kts 289°
2026-05-04 01:50 42.35820 -71.01619 25 ft 19 kts 281°
2026-05-04 01:50 42.35847 -71.01796 30 ft 19 kts 285°
2026-05-04 01:50 42.35895 -71.01960 30 ft 19 kts 301°
2026-05-04 01:50 42.35962 -71.02107 25 ft 18 kts 301°
2026-05-04 01:51 42.36027 -71.02252 27 ft 18 kts 301°
2026-05-04 01:51 42.36104 -71.02335 27 ft 14 kts 330°
2026-05-04 01:51 42.36159 -71.02356 28 ft 4 kts 351°
2026-05-04 01:51 42.36175 -71.02376 25 ft 4 kts 300°
2026-05-04 01:52 42.36183 -71.02411 30 ft 4 kts 280°
2026-05-04 01:52 42.36186 -71.02436 25 ft 0 kts 281°
2026-05-04 01:52 42.36187 -71.02443 25 ft 0 kts 281°